User: anonymous   Login
Location: Unspecified
(0.0000°N, 0.0000°E)
Time: 21:10:19
(UTC+00:00)
Language:

Informator 1 - Orbit

View from above orbital plane
View from above orbital plane
View from above satellite
View from above satellite

Ground track
Ground track

The orbit data is extracted from the following two-line orbital elements,

1 21087U 91006A   22268.47936865  .00000043  00000-0  28028-4 0  9993
2 21087  82.9432  53.7480 0036443  75.2325 345.5562 13.75321059588499
Epoch (UTC): 25 September 2022 11:30:17
Eccentricity: 0.0036443
inclination: 82.9432°
perigee height: 954 km
apogee height: 1007 km
right ascension of ascending node: 53.7480°
argument of perigee: 75.2325°
revolutions per day: 13.75321059
mean anomaly at epoch: 345.5562°
orbit number at epoch: 58849

The dashed part of the orbit path shows where the satellite is in the earth's shadow,  

DLR